カタログに戻る

PSLV DEB

運用中SSO
NORAD 27580·DEBRIS·🇮🇳 India

打ち上げ Oct 22, 2001 から Satish Dhawan Space Centre

Loading…

次のパス (今後24時間)

TLE

経年Source: Space-Track

元期: Sep 6, 2026, 08:19 UTC

1 27580U 01049MY  26249.34694739  .00000366  00000-0  57406-4 0  9995
2 27580  98.2488 289.9422 0044172  70.5888 290.0088 14.78228843292864

AllMySatでPSLV DEBをリアルタイム追跡

Download on the App Store